<?xml version="1.0" encoding="UTF-8"?>
<gpx
version="1.1"
creator="Kashmir3D 9.350 - http://www.kashmir3d.com"
xmlns:xsi="http://www.w3.org/2001/XMLSchema-instance"
xmlns="http://www.topografix.com/GPX/1/1"
xmlns:kashmir3d="http://www.kashmir3d.com/namespace/kashmir3d"
xsi:schemaLocation="http://www.topografix.com/GPX/1/1 http://www.topografix.com/GPX/1/1/gpx.xsd
	http://www.kashmir3d.com/namespace/kashmir3d http://www.kashmir3d.com/namespace/kashmir3d.xsd">
<trk>
 <name>MITSUTOUGEYAMA.KML(三ッ峠山)</name>
 <number>1</number>
 <extensions>
 <kashmir3d:line_color>0000ff</kashmir3d:line_color>
 <kashmir3d:line_size>3</kashmir3d:line_size>
 <kashmir3d:line_style>1</kashmir3d:line_style>
 <kashmir3d:icon>901001</kashmir3d:icon>
 </extensions>
<trkseg>
<trkpt lat="35.556100" lon="138.791946">
 <ele>1229.4</ele>
 <time>2020-03-24T15:42:06Z</time>
</trkpt>
<trkpt lat="35.556177" lon="138.792021">
 <ele>1229.3</ele>
 <time>2020-03-24T15:42:06Z</time>
</trkpt>
<trkpt lat="35.556288" lon="138.792042">
 <ele>1231.7</ele>
 <time>2020-03-24T15:42:06Z</time>
</trkpt>
<trkpt lat="35.556349" lon="138.792128">
 <ele>1232.5</ele>
 <time>2020-03-24T15:42:06Z</time>
</trkpt>
<trkpt lat="35.556795" lon="138.793158">
 <ele>1240.4</ele>
 <time>2020-03-24T15:42:06Z</time>
</trkpt>
<trkpt lat="35.556821" lon="138.793265">
 <ele>1244.5</ele>
 <time>2020-03-24T15:42:07Z</time>
</trkpt>
<trkpt lat="35.556718" lon="138.793340">
 <ele>1246.6</ele>
 <time>2020-03-24T15:42:07Z</time>
</trkpt>
<trkpt lat="35.556589" lon="138.793297">
 <ele>1251.9</ele>
 <time>2020-03-24T15:42:07Z</time>
</trkpt>
<trkpt lat="35.556357" lon="138.793190">
 <ele>1251</ele>
 <time>2020-03-24T15:42:07Z</time>
</trkpt>
<trkpt lat="35.556271" lon="138.793169">
 <ele>1249.2</ele>
 <time>2020-03-24T15:42:07Z</time>
</trkpt>
<trkpt lat="35.556074" lon="138.793222">
 <ele>1252.1</ele>
 <time>2020-03-24T15:42:07Z</time>
</trkpt>
<trkpt lat="35.555997" lon="138.793287">
 <ele>1252.3</ele>
 <time>2020-03-24T15:42:07Z</time>
</trkpt>
<trkpt lat="35.555988" lon="138.793372">
 <ele>1253.9</ele>
 <time>2020-03-24T15:42:07Z</time>
</trkpt>
<trkpt lat="35.555997" lon="138.793490">
 <ele>1254.7</ele>
 <time>2020-03-24T15:42:07Z</time>
</trkpt>
<trkpt lat="35.556194" lon="138.793930">
 <ele>1258.8</ele>
 <time>2020-03-24T15:42:07Z</time>
</trkpt>
<trkpt lat="35.556280" lon="138.794005">
 <ele>1261.3</ele>
 <time>2020-03-24T15:42:08Z</time>
</trkpt>
<trkpt lat="35.556426" lon="138.793963">
 <ele>1263.7</ele>
 <time>2020-03-24T15:42:08Z</time>
</trkpt>
<trkpt lat="35.556580" lon="138.793920">
 <ele>1265.5</ele>
 <time>2020-03-24T15:42:08Z</time>
</trkpt>
<trkpt lat="35.556675" lon="138.793973">
 <ele>1265.1</ele>
 <time>2020-03-24T15:42:08Z</time>
</trkpt>
<trkpt lat="35.556761" lon="138.794134">
 <ele>1266.5</ele>
 <time>2020-03-24T15:42:08Z</time>
</trkpt>
<trkpt lat="35.556906" lon="138.794392">
 <ele>1269.7</ele>
 <time>2020-03-24T15:42:08Z</time>
</trkpt>
<trkpt lat="35.557035" lon="138.794724">
 <ele>1272.3</ele>
 <time>2020-03-24T15:42:08Z</time>
</trkpt>
<trkpt lat="35.557104" lon="138.794971">
 <ele>1273.8</ele>
 <time>2020-03-24T15:42:08Z</time>
</trkpt>
<trkpt lat="35.557138" lon="138.795132">
 <ele>1275.2</ele>
 <time>2020-03-24T15:42:08Z</time>
</trkpt>
<trkpt lat="35.557147" lon="138.795357">
 <ele>1277.8</ele>
 <time>2020-03-24T15:42:09Z</time>
</trkpt>
<trkpt lat="35.557121" lon="138.795465">
 <ele>1279.1</ele>
 <time>2020-03-24T15:42:09Z</time>
</trkpt>
<trkpt lat="35.557061" lon="138.795561">
 <ele>1280.5</ele>
 <time>2020-03-24T15:42:09Z</time>
</trkpt>
<trkpt lat="35.556941" lon="138.795583">
 <ele>1281.9</ele>
 <time>2020-03-24T15:42:09Z</time>
</trkpt>
<trkpt lat="35.556761" lon="138.795529">
 <ele>1284.6</ele>
 <time>2020-03-24T15:42:09Z</time>
</trkpt>
<trkpt lat="35.556572" lon="138.795400">
 <ele>1287.7</ele>
 <time>2020-03-24T15:42:09Z</time>
</trkpt>
<trkpt lat="35.556452" lon="138.795347">
 <ele>1286.7</ele>
 <time>2020-03-24T15:42:09Z</time>
</trkpt>
<trkpt lat="35.556288" lon="138.795475">
 <ele>1288.1</ele>
 <time>2020-03-24T15:42:09Z</time>
</trkpt>
<trkpt lat="35.556057" lon="138.795679">
 <ele>1292.4</ele>
 <time>2020-03-24T15:42:09Z</time>
</trkpt>
<trkpt lat="35.555980" lon="138.795786">
 <ele>1293.2</ele>
 <time>2020-03-24T15:42:09Z</time>
</trkpt>
<trkpt lat="35.556040" lon="138.795829">
 <ele>1293.7</ele>
 <time>2020-03-24T15:42:10Z</time>
</trkpt>
<trkpt lat="35.556151" lon="138.795894">
 <ele>1295.6</ele>
 <time>2020-03-24T15:42:10Z</time>
</trkpt>
<trkpt lat="35.556246" lon="138.795947">
 <ele>1296.1</ele>
 <time>2020-03-24T15:42:10Z</time>
</trkpt>
<trkpt lat="35.556331" lon="138.796055">
 <ele>1296.8</ele>
 <time>2020-03-24T15:42:10Z</time>
</trkpt>
<trkpt lat="35.556383" lon="138.796173">
 <ele>1298.1</ele>
 <time>2020-03-24T15:42:10Z</time>
</trkpt>
<trkpt lat="35.556417" lon="138.796259">
 <ele>1298.6</ele>
 <time>2020-03-24T15:42:10Z</time>
</trkpt>
<trkpt lat="35.556357" lon="138.796312">
 <ele>1300</ele>
 <time>2020-03-24T15:42:10Z</time>
</trkpt>
<trkpt lat="35.556254" lon="138.796312">
 <ele>1301</ele>
 <time>2020-03-24T15:42:10Z</time>
</trkpt>
<trkpt lat="35.556177" lon="138.796323">
 <ele>1302.6</ele>
 <time>2020-03-24T15:42:10Z</time>
</trkpt>
<trkpt lat="35.556100" lon="138.796409">
 <ele>1305.5</ele>
 <time>2020-03-24T15:42:11Z</time>
</trkpt>
<trkpt lat="35.556065" lon="138.796537">
 <ele>1308.1</ele>
 <time>2020-03-24T15:42:11Z</time>
</trkpt>
<trkpt lat="35.556031" lon="138.796677">
 <ele>1310.3</ele>
 <time>2020-03-24T15:42:11Z</time>
</trkpt>
<trkpt lat="35.555988" lon="138.796838">
 <ele>1312.8</ele>
 <time>2020-03-24T15:42:11Z</time>
</trkpt>
<trkpt lat="35.555971" lon="138.796988">
 <ele>1314.9</ele>
 <time>2020-03-24T15:42:11Z</time>
</trkpt>
<trkpt lat="35.555937" lon="138.797138">
 <ele>1316.2</ele>
 <time>2020-03-24T15:42:11Z</time>
</trkpt>
<trkpt lat="35.555919" lon="138.797235">
 <ele>1317.9</ele>
 <time>2020-03-24T15:42:11Z</time>
</trkpt>
<trkpt lat="35.555894" lon="138.797353">
 <ele>1320</ele>
 <time>2020-03-24T15:42:11Z</time>
</trkpt>
<trkpt lat="35.555877" lon="138.797482">
 <ele>1320.9</ele>
 <time>2020-03-24T15:42:11Z</time>
</trkpt>
<trkpt lat="35.555842" lon="138.797632">
 <ele>1324.7</ele>
 <time>2020-03-24T15:42:11Z</time>
</trkpt>
<trkpt lat="35.555774" lon="138.797846">
 <ele>1327.7</ele>
 <time>2020-03-24T15:42:12Z</time>
</trkpt>
<trkpt lat="35.555739" lon="138.797986">
 <ele>1330.1</ele>
 <time>2020-03-24T15:42:12Z</time>
</trkpt>
<trkpt lat="35.555688" lon="138.798115">
 <ele>1333.4</ele>
 <time>2020-03-24T15:42:12Z</time>
</trkpt>
<trkpt lat="35.555619" lon="138.798147">
 <ele>1334.7</ele>
 <time>2020-03-24T15:42:12Z</time>
</trkpt>
<trkpt lat="35.555525" lon="138.798104">
 <ele>1335.3</ele>
 <time>2020-03-24T15:42:12Z</time>
</trkpt>
<trkpt lat="35.555439" lon="138.798018">
 <ele>1337.5</ele>
 <time>2020-03-24T15:42:12Z</time>
</trkpt>
<trkpt lat="35.555396" lon="138.797954">
 <ele>1338</ele>
 <time>2020-03-24T15:42:12Z</time>
</trkpt>
<trkpt lat="35.555319" lon="138.797922">
 <ele>1339.8</ele>
 <time>2020-03-24T15:42:12Z</time>
</trkpt>
<trkpt lat="35.555276" lon="138.797954">
 <ele>1340.6</ele>
 <time>2020-03-24T15:42:12Z</time>
</trkpt>
<trkpt lat="35.555259" lon="138.798018">
 <ele>1342.8</ele>
 <time>2020-03-24T15:42:13Z</time>
</trkpt>
<trkpt lat="35.555284" lon="138.798136">
 <ele>1343.6</ele>
 <time>2020-03-24T15:42:13Z</time>
</trkpt>
<trkpt lat="35.555319" lon="138.798297">
 <ele>1345.1</ele>
 <time>2020-03-24T15:42:13Z</time>
</trkpt>
<trkpt lat="35.555301" lon="138.798383">
 <ele>1346.9</ele>
 <time>2020-03-24T15:42:13Z</time>
</trkpt>
<trkpt lat="35.555216" lon="138.798340">
 <ele>1347.7</ele>
 <time>2020-03-24T15:42:13Z</time>
</trkpt>
<trkpt lat="35.555121" lon="138.798265">
 <ele>1350.2</ele>
 <time>2020-03-24T15:42:13Z</time>
</trkpt>
<trkpt lat="35.555027" lon="138.798233">
 <ele>1353.4</ele>
 <time>2020-03-24T15:42:13Z</time>
</trkpt>
<trkpt lat="35.554975" lon="138.798254">
 <ele>1354.4</ele>
 <time>2020-03-24T15:42:13Z</time>
</trkpt>
<trkpt lat="35.554958" lon="138.798351">
 <ele>1356.8</ele>
 <time>2020-03-24T15:42:13Z</time>
</trkpt>
<trkpt lat="35.554932" lon="138.798426">
 <ele>1357.9</ele>
 <time>2020-03-24T15:42:13Z</time>
</trkpt>
<trkpt lat="35.554915" lon="138.798544">
 <ele>1359</ele>
 <time>2020-03-24T15:42:14Z</time>
</trkpt>
<trkpt lat="35.554855" lon="138.798512">
 <ele>1359.7</ele>
 <time>2020-03-24T15:42:14Z</time>
</trkpt>
<trkpt lat="35.554769" lon="138.798426">
 <ele>1361.9</ele>
 <time>2020-03-24T15:42:14Z</time>
</trkpt>
<trkpt lat="35.554709" lon="138.798372">
 <ele>1363.6</ele>
 <time>2020-03-24T15:42:14Z</time>
</trkpt>
<trkpt lat="35.554641" lon="138.798318">
 <ele>1365.3</ele>
 <time>2020-03-24T15:42:14Z</time>
</trkpt>
<trkpt lat="35.554623" lon="138.798415">
 <ele>1367.2</ele>
 <time>2020-03-24T15:42:14Z</time>
</trkpt>
<trkpt lat="35.554683" lon="138.798544">
 <ele>1369.2</ele>
 <time>2020-03-24T15:42:14Z</time>
</trkpt>
<trkpt lat="35.554726" lon="138.798630">
 <ele>1368.9</ele>
 <time>2020-03-24T15:42:14Z</time>
</trkpt>
<trkpt lat="35.554692" lon="138.798683">
 <ele>1371.6</ele>
 <time>2020-03-24T15:42:14Z</time>
</trkpt>
<trkpt lat="35.554606" lon="138.798651">
 <ele>1374.9</ele>
 <time>2020-03-24T15:42:15Z</time>
</trkpt>
<trkpt lat="35.554503" lon="138.798555">
 <ele>1377</ele>
 <time>2020-03-24T15:42:15Z</time>
</trkpt>
<trkpt lat="35.554400" lon="138.798490">
 <ele>1378.6</ele>
 <time>2020-03-24T15:42:15Z</time>
</trkpt>
<trkpt lat="35.554323" lon="138.798447">
 <ele>1381.9</ele>
 <time>2020-03-24T15:42:15Z</time>
</trkpt>
<trkpt lat="35.554297" lon="138.798576">
 <ele>1385.1</ele>
 <time>2020-03-24T15:42:15Z</time>
</trkpt>
<trkpt lat="35.554366" lon="138.798715">
 <ele>1387.9</ele>
 <time>2020-03-24T15:42:15Z</time>
</trkpt>
<trkpt lat="35.554417" lon="138.798801">
 <ele>1388.9</ele>
 <time>2020-03-24T15:42:15Z</time>
</trkpt>
<trkpt lat="35.554400" lon="138.798898">
 <ele>1390</ele>
 <time>2020-03-24T15:42:15Z</time>
</trkpt>
<trkpt lat="35.554366" lon="138.798973">
 <ele>1391.1</ele>
 <time>2020-03-24T15:42:15Z</time>
</trkpt>
<trkpt lat="35.554254" lon="138.799123">
 <ele>1394.8</ele>
 <time>2020-03-24T15:42:16Z</time>
</trkpt>
<trkpt lat="35.554048" lon="138.799306">
 <ele>1399.1</ele>
 <time>2020-03-24T15:42:16Z</time>
</trkpt>
<trkpt lat="35.553894" lon="138.799466">
 <ele>1400.9</ele>
 <time>2020-03-24T15:42:16Z</time>
</trkpt>
<trkpt lat="35.553756" lon="138.799574">
 <ele>1403.1</ele>
 <time>2020-03-24T15:42:16Z</time>
</trkpt>
<trkpt lat="35.553653" lon="138.799649">
 <ele>1404.8</ele>
 <time>2020-03-24T15:42:16Z</time>
</trkpt>
<trkpt lat="35.553542" lon="138.799692">
 <ele>1407</ele>
 <time>2020-03-24T15:42:16Z</time>
</trkpt>
<trkpt lat="35.553439" lon="138.799735">
 <ele>1408.4</ele>
 <time>2020-03-24T15:42:16Z</time>
</trkpt>
<trkpt lat="35.553362" lon="138.799735">
 <ele>1410.4</ele>
 <time>2020-03-24T15:42:16Z</time>
</trkpt>
<trkpt lat="35.553302" lon="138.799756">
 <ele>1412.8</ele>
 <time>2020-03-24T15:42:16Z</time>
</trkpt>
<trkpt lat="35.553250" lon="138.799767">
 <ele>1414</ele>
 <time>2020-03-24T15:42:17Z</time>
</trkpt>
<trkpt lat="35.553216" lon="138.799702">
 <ele>1416.3</ele>
 <time>2020-03-24T15:42:17Z</time>
</trkpt>
<trkpt lat="35.553336" lon="138.799563">
 <ele>1420.6</ele>
 <time>2020-03-24T15:42:17Z</time>
</trkpt>
<trkpt lat="35.553422" lon="138.799466">
 <ele>1423.8</ele>
 <time>2020-03-24T15:42:17Z</time>
</trkpt>
<trkpt lat="35.553508" lon="138.799359">
 <ele>1424</ele>
 <time>2020-03-24T15:42:17Z</time>
</trkpt>
<trkpt lat="35.553576" lon="138.799273">
 <ele>1424.9</ele>
 <time>2020-03-24T15:42:17Z</time>
</trkpt>
<trkpt lat="35.553611" lon="138.799188">
 <ele>1427.7</ele>
 <time>2020-03-24T15:42:17Z</time>
</trkpt>
<trkpt lat="35.553645" lon="138.799112">
 <ele>1430.2</ele>
 <time>2020-03-24T15:42:17Z</time>
</trkpt>
<trkpt lat="35.553576" lon="138.799102">
 <ele>1433</ele>
 <time>2020-03-24T15:42:17Z</time>
</trkpt>
<trkpt lat="35.553447" lon="138.799177">
 <ele>1436.5</ele>
 <time>2020-03-24T15:42:17Z</time>
</trkpt>
<trkpt lat="35.553310" lon="138.799220">
 <ele>1440.4</ele>
 <time>2020-03-24T15:42:18Z</time>
</trkpt>
<trkpt lat="35.553181" lon="138.799252">
 <ele>1444.6</ele>
 <time>2020-03-24T15:42:18Z</time>
</trkpt>
<trkpt lat="35.553061" lon="138.799338">
 <ele>1446.2</ele>
 <time>2020-03-24T15:42:18Z</time>
</trkpt>
<trkpt lat="35.552821" lon="138.799381">
 <ele>1452.2</ele>
 <time>2020-03-24T15:42:18Z</time>
</trkpt>
<trkpt lat="35.552701" lon="138.799413">
 <ele>1452.7</ele>
 <time>2020-03-24T15:42:18Z</time>
</trkpt>
<trkpt lat="35.552503" lon="138.799488">
 <ele>1456.9</ele>
 <time>2020-03-24T15:42:18Z</time>
</trkpt>
<trkpt lat="35.552375" lon="138.799552">
 <ele>1457</ele>
 <time>2020-03-24T15:42:18Z</time>
</trkpt>
<trkpt lat="35.552297" lon="138.799542">
 <ele>1460.1</ele>
 <time>2020-03-24T15:42:18Z</time>
</trkpt>
<trkpt lat="35.552177" lon="138.799606">
 <ele>1458.8</ele>
 <time>2020-03-24T15:42:18Z</time>
</trkpt>
<trkpt lat="35.552074" lon="138.799606">
 <ele>1460.4</ele>
 <time>2020-03-24T15:42:19Z</time>
</trkpt>
<trkpt lat="35.552014" lon="138.799574">
 <ele>1463.6</ele>
 <time>2020-03-24T15:42:19Z</time>
</trkpt>
<trkpt lat="35.552109" lon="138.799509">
 <ele>1466.1</ele>
 <time>2020-03-24T15:42:19Z</time>
</trkpt>
<trkpt lat="35.552263" lon="138.799413">
 <ele>1468.5</ele>
 <time>2020-03-24T15:42:19Z</time>
</trkpt>
<trkpt lat="35.552357" lon="138.799370">
 <ele>1469.5</ele>
 <time>2020-03-24T15:42:19Z</time>
</trkpt>
<trkpt lat="35.552443" lon="138.799263">
 <ele>1471</ele>
 <time>2020-03-24T15:42:19Z</time>
</trkpt>
<trkpt lat="35.552521" lon="138.799188">
 <ele>1469.8</ele>
 <time>2020-03-24T15:42:19Z</time>
</trkpt>
<trkpt lat="35.552581" lon="138.799102">
 <ele>1473.3</ele>
 <time>2020-03-24T15:42:19Z</time>
</trkpt>
<trkpt lat="35.552641" lon="138.799016">
 <ele>1476.8</ele>
 <time>2020-03-24T15:42:19Z</time>
</trkpt>
<trkpt lat="35.552684" lon="138.798919">
 <ele>1479.4</ele>
 <time>2020-03-24T15:42:19Z</time>
</trkpt>
<trkpt lat="35.552684" lon="138.798823">
 <ele>1482.2</ele>
 <time>2020-03-24T15:42:20Z</time>
</trkpt>
<trkpt lat="35.552632" lon="138.798780">
 <ele>1483.1</ele>
 <time>2020-03-24T15:42:20Z</time>
</trkpt>
<trkpt lat="35.552581" lon="138.798833">
 <ele>1485.3</ele>
 <time>2020-03-24T15:42:20Z</time>
</trkpt>
<trkpt lat="35.552495" lon="138.798855">
 <ele>1487.3</ele>
 <time>2020-03-24T15:42:20Z</time>
</trkpt>
<trkpt lat="35.552418" lon="138.798855">
 <ele>1489.2</ele>
 <time>2020-03-24T15:42:20Z</time>
</trkpt>
<trkpt lat="35.552357" lon="138.798844">
 <ele>1491.4</ele>
 <time>2020-03-24T15:42:20Z</time>
</trkpt>
<trkpt lat="35.552297" lon="138.798833">
 <ele>1496.1</ele>
 <time>2020-03-24T15:42:20Z</time>
</trkpt>
<trkpt lat="35.552254" lon="138.798780">
 <ele>1499.3</ele>
 <time>2020-03-24T15:42:20Z</time>
</trkpt>
<trkpt lat="35.552254" lon="138.798694">
 <ele>1501.3</ele>
 <time>2020-03-24T15:42:20Z</time>
</trkpt>
<trkpt lat="35.552212" lon="138.798587">
 <ele>1502.7</ele>
 <time>2020-03-24T15:42:21Z</time>
</trkpt>
<trkpt lat="35.552160" lon="138.798587">
 <ele>1505.8</ele>
 <time>2020-03-24T15:42:21Z</time>
</trkpt>
<trkpt lat="35.552091" lon="138.798619">
 <ele>1509.2</ele>
 <time>2020-03-24T15:42:21Z</time>
</trkpt>
<trkpt lat="35.552040" lon="138.798651">
 <ele>1510.3</ele>
 <time>2020-03-24T15:42:21Z</time>
</trkpt>
<trkpt lat="35.551963" lon="138.798694">
 <ele>1512.8</ele>
 <time>2020-03-24T15:42:21Z</time>
</trkpt>
<trkpt lat="35.551877" lon="138.798651">
 <ele>1516.8</ele>
 <time>2020-03-24T15:42:21Z</time>
</trkpt>
<trkpt lat="35.551774" lon="138.798662">
 <ele>1519.9</ele>
 <time>2020-03-24T15:42:21Z</time>
</trkpt>
<trkpt lat="35.551714" lon="138.798705">
 <ele>1519.8</ele>
 <time>2020-03-24T15:42:21Z</time>
</trkpt>
<trkpt lat="35.551654" lon="138.798619">
 <ele>1523.8</ele>
 <time>2020-03-24T15:42:21Z</time>
</trkpt>
<trkpt lat="35.551568" lon="138.798533">
 <ele>1529</ele>
 <time>2020-03-24T15:42:21Z</time>
</trkpt>
<trkpt lat="35.551448" lon="138.798458">
 <ele>1533.4</ele>
 <time>2020-03-24T15:42:22Z</time>
</trkpt>
<trkpt lat="35.551353" lon="138.798415">
 <ele>1537.8</ele>
 <time>2020-03-24T15:42:22Z</time>
</trkpt>
<trkpt lat="35.551259" lon="138.798404">
 <ele>1539.9</ele>
 <time>2020-03-24T15:42:22Z</time>
</trkpt>
<trkpt lat="35.551164" lon="138.798404">
 <ele>1541.8</ele>
 <time>2020-03-24T15:42:22Z</time>
</trkpt>
<trkpt lat="35.551070" lon="138.798490">
 <ele>1544.1</ele>
 <time>2020-03-24T15:42:22Z</time>
</trkpt>
<trkpt lat="35.550993" lon="138.798533">
 <ele>1545.5</ele>
 <time>2020-03-24T15:42:22Z</time>
</trkpt>
<trkpt lat="35.550761" lon="138.798533">
 <ele>1547.4</ele>
 <time>2020-03-24T15:42:22Z</time>
</trkpt>
<trkpt lat="35.550607" lon="138.798555">
 <ele>1548.1</ele>
 <time>2020-03-24T15:42:22Z</time>
</trkpt>
<trkpt lat="35.550529" lon="138.798587">
 <ele>1548.6</ele>
 <time>2020-03-24T15:42:22Z</time>
</trkpt>
<trkpt lat="35.550409" lon="138.798608">
 <ele>1550.6</ele>
 <time>2020-03-24T15:42:22Z</time>
</trkpt>
<trkpt lat="35.550323" lon="138.798597">
 <ele>1552.2</ele>
 <time>2020-03-24T15:42:23Z</time>
</trkpt>
<trkpt lat="35.550212" lon="138.798597">
 <ele>1554.9</ele>
 <time>2020-03-24T15:42:23Z</time>
</trkpt>
<trkpt lat="35.550152" lon="138.798597">
 <ele>1556.4</ele>
 <time>2020-03-24T15:42:23Z</time>
</trkpt>
<trkpt lat="35.550057" lon="138.798630">
 <ele>1559.7</ele>
 <time>2020-03-24T15:42:23Z</time>
</trkpt>
<trkpt lat="35.550014" lon="138.798683">
 <ele>1561.1</ele>
 <time>2020-03-24T15:42:23Z</time>
</trkpt>
<trkpt lat="35.549954" lon="138.798694">
 <ele>1562.9</ele>
 <time>2020-03-24T15:42:23Z</time>
</trkpt>
<trkpt lat="35.549868" lon="138.798640">
 <ele>1564.5</ele>
 <time>2020-03-24T15:42:23Z</time>
</trkpt>
<trkpt lat="35.549783" lon="138.798640">
 <ele>1568.2</ele>
 <time>2020-03-24T15:42:23Z</time>
</trkpt>
<trkpt lat="35.549628" lon="138.798683">
 <ele>1572.2</ele>
 <time>2020-03-24T15:42:23Z</time>
</trkpt>
<trkpt lat="35.549516" lon="138.798769">
 <ele>1574.6</ele>
 <time>2020-03-24T15:42:24Z</time>
</trkpt>
<trkpt lat="35.549396" lon="138.798769">
 <ele>1577.6</ele>
 <time>2020-03-24T15:42:24Z</time>
</trkpt>
<trkpt lat="35.549268" lon="138.798780">
 <ele>1579.3</ele>
 <time>2020-03-24T15:42:24Z</time>
</trkpt>
<trkpt lat="35.549122" lon="138.798909">
 <ele>1583.6</ele>
 <time>2020-03-24T15:42:24Z</time>
</trkpt>
<trkpt lat="35.548984" lon="138.799048">
 <ele>1584.2</ele>
 <time>2020-03-24T15:42:24Z</time>
</trkpt>
<trkpt lat="35.548821" lon="138.799145">
 <ele>1585.1</ele>
 <time>2020-03-24T15:42:24Z</time>
</trkpt>
<trkpt lat="35.548650" lon="138.799230">
 <ele>1588.7</ele>
 <time>2020-03-24T15:42:24Z</time>
</trkpt>
<trkpt lat="35.548572" lon="138.799230">
 <ele>1590.3</ele>
 <time>2020-03-24T15:42:24Z</time>
</trkpt>
<trkpt lat="35.548495" lon="138.799209">
 <ele>1590.8</ele>
 <time>2020-03-24T15:42:24Z</time>
</trkpt>
<trkpt lat="35.548332" lon="138.799263">
 <ele>1596.6</ele>
 <time>2020-03-24T15:42:24Z</time>
</trkpt>
<trkpt lat="35.548229" lon="138.799306">
 <ele>1599.1</ele>
 <time>2020-03-24T15:42:25Z</time>
</trkpt>
<trkpt lat="35.548143" lon="138.799348">
 <ele>1601</ele>
 <time>2020-03-24T15:42:25Z</time>
</trkpt>
<trkpt lat="35.548049" lon="138.799413">
 <ele>1602.4</ele>
 <time>2020-03-24T15:42:25Z</time>
</trkpt>
<trkpt lat="35.547946" lon="138.799413">
 <ele>1604.1</ele>
 <time>2020-03-24T15:42:25Z</time>
</trkpt>
<trkpt lat="35.547911" lon="138.799466">
 <ele>1606.2</ele>
 <time>2020-03-24T15:42:25Z</time>
</trkpt>
<trkpt lat="35.547989" lon="138.799542">
 <ele>1608.8</ele>
 <time>2020-03-24T15:42:25Z</time>
</trkpt>
<trkpt lat="35.548049" lon="138.799595">
 <ele>1609.4</ele>
 <time>2020-03-24T15:42:25Z</time>
</trkpt>
<trkpt lat="35.548023" lon="138.799649">
 <ele>1611.6</ele>
 <time>2020-03-24T15:42:25Z</time>
</trkpt>
<trkpt lat="35.547989" lon="138.799649">
 <ele>1612.5</ele>
 <time>2020-03-24T15:42:25Z</time>
</trkpt>
<trkpt lat="35.547894" lon="138.799649">
 <ele>1615.5</ele>
 <time>2020-03-24T15:42:25Z</time>
</trkpt>
<trkpt lat="35.547834" lon="138.799638">
 <ele>1616.3</ele>
 <time>2020-03-24T15:42:26Z</time>
</trkpt>
<trkpt lat="35.547783" lon="138.799638">
 <ele>1617.4</ele>
 <time>2020-03-24T15:42:26Z</time>
</trkpt>
<trkpt lat="35.547783" lon="138.799681">
 <ele>1618.6</ele>
 <time>2020-03-24T15:42:26Z</time>
</trkpt>
<trkpt lat="35.547817" lon="138.799745">
 <ele>1620.2</ele>
 <time>2020-03-24T15:42:26Z</time>
</trkpt>
<trkpt lat="35.547834" lon="138.799810">
 <ele>1621.4</ele>
 <time>2020-03-24T15:42:26Z</time>
</trkpt>
<trkpt lat="35.547843" lon="138.799874">
 <ele>1621.8</ele>
 <time>2020-03-24T15:42:26Z</time>
</trkpt>
<trkpt lat="35.547817" lon="138.799917">
 <ele>1623</ele>
 <time>2020-03-24T15:42:26Z</time>
</trkpt>
<trkpt lat="35.547757" lon="138.799949">
 <ele>1625.6</ele>
 <time>2020-03-24T15:42:26Z</time>
</trkpt>
<trkpt lat="35.547714" lon="138.799853">
 <ele>1627.5</ele>
 <time>2020-03-24T15:42:26Z</time>
</trkpt>
<trkpt lat="35.547663" lon="138.799810">
 <ele>1628.4</ele>
 <time>2020-03-24T15:42:27Z</time>
</trkpt>
<trkpt lat="35.547645" lon="138.799885">
 <ele>1631</ele>
 <time>2020-03-24T15:42:27Z</time>
</trkpt>
<trkpt lat="35.547611" lon="138.799992">
 <ele>1633.3</ele>
 <time>2020-03-24T15:42:27Z</time>
</trkpt>
<trkpt lat="35.547542" lon="138.800164">
 <ele>1637</ele>
 <time>2020-03-24T15:42:27Z</time>
</trkpt>
<trkpt lat="35.547474" lon="138.800293">
 <ele>1641.4</ele>
 <time>2020-03-24T15:42:27Z</time>
</trkpt>
<trkpt lat="35.547422" lon="138.800486">
 <ele>1643.6</ele>
 <time>2020-03-24T15:42:27Z</time>
</trkpt>
<trkpt lat="35.547371" lon="138.800647">
 <ele>1646.9</ele>
 <time>2020-03-24T15:42:27Z</time>
</trkpt>
<trkpt lat="35.547345" lon="138.800765">
 <ele>1650.2</ele>
 <time>2020-03-24T15:42:27Z</time>
</trkpt>
<trkpt lat="35.547345" lon="138.800915">
 <ele>1654.1</ele>
 <time>2020-03-24T15:42:27Z</time>
</trkpt>
<trkpt lat="35.547499" lon="138.801011">
 <ele>1653.4</ele>
 <time>2020-03-24T15:42:27Z</time>
</trkpt>
<trkpt lat="35.547637" lon="138.801087">
 <ele>1654.9</ele>
 <time>2020-03-24T15:42:28Z</time>
</trkpt>
<trkpt lat="35.547834" lon="138.801162">
 <ele>1658.9</ele>
 <time>2020-03-24T15:42:28Z</time>
</trkpt>
<trkpt lat="35.547920" lon="138.801194">
 <ele>1661.1</ele>
 <time>2020-03-24T15:42:28Z</time>
</trkpt>
<trkpt lat="35.548032" lon="138.801226">
 <ele>1659.1</ele>
 <time>2020-03-24T15:42:28Z</time>
</trkpt>
<trkpt lat="35.548100" lon="138.801301">
 <ele>1659.6</ele>
 <time>2020-03-24T15:42:28Z</time>
</trkpt>
<trkpt lat="35.548169" lon="138.801408">
 <ele>1660.3</ele>
 <time>2020-03-24T15:42:28Z</time>
</trkpt>
<trkpt lat="35.548238" lon="138.801526">
 <ele>1660.2</ele>
 <time>2020-03-24T15:42:28Z</time>
</trkpt>
<trkpt lat="35.548280" lon="138.801687">
 <ele>1662.4</ele>
 <time>2020-03-24T15:42:28Z</time>
</trkpt>
<trkpt lat="35.548366" lon="138.801848">
 <ele>1663.3</ele>
 <time>2020-03-24T15:42:28Z</time>
</trkpt>
<trkpt lat="35.548426" lon="138.801956">
 <ele>1664</ele>
 <time>2020-03-24T15:42:28Z</time>
</trkpt>
<trkpt lat="35.548444" lon="138.802213">
 <ele>1665.6</ele>
 <time>2020-03-24T15:42:29Z</time>
</trkpt>
<trkpt lat="35.548435" lon="138.802481">
 <ele>1667.7</ele>
 <time>2020-03-24T15:42:29Z</time>
</trkpt>
<trkpt lat="35.548461" lon="138.802986">
 <ele>1675.2</ele>
 <time>2020-03-24T15:42:29Z</time>
</trkpt>
<trkpt lat="35.548461" lon="138.803179">
 <ele>1678.2</ele>
 <time>2020-03-24T15:42:29Z</time>
</trkpt>
<trkpt lat="35.548512" lon="138.803382">
 <ele>1680.1</ele>
 <time>2020-03-24T15:42:29Z</time>
</trkpt>
<trkpt lat="35.548572" lon="138.803597">
 <ele>1684.4</ele>
 <time>2020-03-24T15:42:29Z</time>
</trkpt>
<trkpt lat="35.548624" lon="138.803715">
 <ele>1685.8</ele>
 <time>2020-03-24T15:42:29Z</time>
</trkpt>
<trkpt lat="35.548632" lon="138.803876">
 <ele>1689.2</ele>
 <time>2020-03-24T15:42:29Z</time>
</trkpt>
<trkpt lat="35.548658" lon="138.803951">
 <ele>1689.2</ele>
 <time>2020-03-24T15:42:29Z</time>
</trkpt>
<trkpt lat="35.548624" lon="138.804123">
 <ele>1692</ele>
 <time>2020-03-24T15:42:30Z</time>
</trkpt>
<trkpt lat="35.548529" lon="138.804498">
 <ele>1698.5</ele>
 <time>2020-03-24T15:42:30Z</time>
</trkpt>
<trkpt lat="35.548452" lon="138.804852">
 <ele>1705.6</ele>
 <time>2020-03-24T15:42:30Z</time>
</trkpt>
<trkpt lat="35.548383" lon="138.805045">
 <ele>1709.8</ele>
 <time>2020-03-24T15:42:30Z</time>
</trkpt>
<trkpt lat="35.548349" lon="138.805153">
 <ele>1711.8</ele>
 <time>2020-03-24T15:42:30Z</time>
</trkpt>
<trkpt lat="35.548332" lon="138.805335">
 <ele>1712.7</ele>
 <time>2020-03-24T15:42:30Z</time>
</trkpt>
<trkpt lat="35.548323" lon="138.805432">
 <ele>1714.5</ele>
 <time>2020-03-24T15:42:30Z</time>
</trkpt>
<trkpt lat="35.548306" lon="138.805528">
 <ele>1717.3</ele>
 <time>2020-03-24T15:42:30Z</time>
</trkpt>
<trkpt lat="35.548298" lon="138.805657">
 <ele>1720</ele>
 <time>2020-03-24T15:42:30Z</time>
</trkpt>
<trkpt lat="35.548315" lon="138.805721">
 <ele>1721</ele>
 <time>2020-03-24T15:42:30Z</time>
</trkpt>
<trkpt lat="35.548315" lon="138.805796">
 <ele>1723</ele>
 <time>2020-03-24T15:42:31Z</time>
</trkpt>
<trkpt lat="35.548289" lon="138.805861">
 <ele>1724.2</ele>
 <time>2020-03-24T15:42:31Z</time>
</trkpt>
<trkpt lat="35.548220" lon="138.805979">
 <ele>1729</ele>
 <time>2020-03-24T15:42:31Z</time>
</trkpt>
<trkpt lat="35.548246" lon="138.806086">
 <ele>1728.6</ele>
 <time>2020-03-24T15:42:31Z</time>
</trkpt>
<trkpt lat="35.548401" lon="138.806161">
 <ele>1730.2</ele>
 <time>2020-03-24T15:42:31Z</time>
</trkpt>
<trkpt lat="35.548615" lon="138.806279">
 <ele>1732.4</ele>
 <time>2020-03-24T15:42:31Z</time>
</trkpt>
<trkpt lat="35.548744" lon="138.806333">
 <ele>1733.2</ele>
 <time>2020-03-24T15:42:31Z</time>
</trkpt>
<trkpt lat="35.548856" lon="138.806376">
 <ele>1733.8</ele>
 <time>2020-03-24T15:42:31Z</time>
</trkpt>
<trkpt lat="35.548976" lon="138.806472">
 <ele>1735.6</ele>
 <time>2020-03-24T15:42:31Z</time>
</trkpt>
<trkpt lat="35.549044" lon="138.806537">
 <ele>1736.1</ele>
 <time>2020-03-24T15:42:31Z</time>
</trkpt>
<trkpt lat="35.549096" lon="138.806644">
 <ele>1735.7</ele>
 <time>2020-03-24T15:42:32Z</time>
</trkpt>
<trkpt lat="35.549165" lon="138.806816">
 <ele>1733.7</ele>
 <time>2020-03-24T15:42:32Z</time>
</trkpt>
<trkpt lat="35.549216" lon="138.806902">
 <ele>1731.5</ele>
 <time>2020-03-24T15:42:32Z</time>
</trkpt>
<trkpt lat="35.549319" lon="138.806955">
 <ele>1729.2</ele>
 <time>2020-03-24T15:42:32Z</time>
</trkpt>
<trkpt lat="35.549396" lon="138.806955">
 <ele>1728.6</ele>
 <time>2020-03-24T15:42:32Z</time>
</trkpt>
<trkpt lat="35.549499" lon="138.806977">
 <ele>1727.2</ele>
 <time>2020-03-24T15:42:32Z</time>
</trkpt>
<trkpt lat="35.549594" lon="138.807073">
 <ele>1726.6</ele>
 <time>2020-03-24T15:42:32Z</time>
</trkpt>
<trkpt lat="35.549688" lon="138.807213">
 <ele>1724.8</ele>
 <time>2020-03-24T15:42:32Z</time>
</trkpt>
<trkpt lat="35.549740" lon="138.807299">
 <ele>1722.5</ele>
 <time>2020-03-24T15:42:32Z</time>
</trkpt>
<trkpt lat="35.549834" lon="138.807341">
 <ele>1720.5</ele>
 <time>2020-03-24T15:42:33Z</time>
</trkpt>
<trkpt lat="35.549903" lon="138.807395">
 <ele>1720</ele>
 <time>2020-03-24T15:42:33Z</time>
</trkpt>
<trkpt lat="35.549971" lon="138.807459">
 <ele>1721.3</ele>
 <time>2020-03-24T15:42:33Z</time>
</trkpt>
<trkpt lat="35.550023" lon="138.807545">
 <ele>1722.9</ele>
 <time>2020-03-24T15:42:33Z</time>
</trkpt>
<trkpt lat="35.550049" lon="138.807642">
 <ele>1724.5</ele>
 <time>2020-03-24T15:42:33Z</time>
</trkpt>
<trkpt lat="35.550049" lon="138.807749">
 <ele>1727.9</ele>
 <time>2020-03-24T15:42:33Z</time>
</trkpt>
<trkpt lat="35.550074" lon="138.807932">
 <ele>1738.9</ele>
 <time>2020-03-24T15:42:33Z</time>
</trkpt>
<trkpt lat="35.550057" lon="138.808028">
 <ele>1742.2</ele>
 <time>2020-03-24T15:42:33Z</time>
</trkpt>
<trkpt lat="35.549997" lon="138.808114">
 <ele>1745</ele>
 <time>2020-03-24T15:42:33Z</time>
</trkpt>
<trkpt lat="35.549868" lon="138.808318">
 <ele>1751.4</ele>
 <time>2020-03-24T15:42:33Z</time>
</trkpt>
<trkpt lat="35.549714" lon="138.808597">
 <ele>1758.8</ele>
 <time>2020-03-24T15:42:34Z</time>
</trkpt>
<trkpt lat="35.549611" lon="138.808758">
 <ele>1764.1</ele>
 <time>2020-03-24T15:42:34Z</time>
</trkpt>
<trkpt lat="35.549542" lon="138.808919">
 <ele>1769.9</ele>
 <time>2020-03-24T15:42:34Z</time>
</trkpt>
<trkpt lat="35.549508" lon="138.809004">
 <ele>1773.9</ele>
 <time>2020-03-24T15:42:34Z</time>
</trkpt>
<trkpt lat="35.549431" lon="138.809090">
 <ele>1778.6</ele>
 <time>2020-03-24T15:42:34Z</time>
</trkpt>
<trkpt lat="35.549272" lon="138.809206">
 <ele>1784.2</ele>
 <time>2020-03-24T15:42:34Z</time>
</trkpt>
<trkpt lat="35.549431" lon="138.809090">
 <ele>1778.6</ele>
 <time>2020-03-24T15:42:34Z</time>
</trkpt>
<trkpt lat="35.549508" lon="138.809004">
 <ele>1773.9</ele>
 <time>2020-03-24T15:42:34Z</time>
</trkpt>
<trkpt lat="35.549542" lon="138.808919">
 <ele>1769.9</ele>
 <time>2020-03-24T15:42:34Z</time>
</trkpt>
<trkpt lat="35.549611" lon="138.808758">
 <ele>1764.1</ele>
 <time>2020-03-24T15:42:34Z</time>
</trkpt>
<trkpt lat="35.549714" lon="138.808597">
 <ele>1758.8</ele>
 <time>2020-03-24T15:42:35Z</time>
</trkpt>
<trkpt lat="35.549868" lon="138.808318">
 <ele>1751.4</ele>
 <time>2020-03-24T15:42:35Z</time>
</trkpt>
<trkpt lat="35.549997" lon="138.808114">
 <ele>1745</ele>
 <time>2020-03-24T15:42:35Z</time>
</trkpt>
<trkpt lat="35.550057" lon="138.808028">
 <ele>1742.2</ele>
 <time>2020-03-24T15:42:35Z</time>
</trkpt>
<trkpt lat="35.550074" lon="138.807932">
 <ele>1738.9</ele>
 <time>2020-03-24T15:42:35Z</time>
</trkpt>
<trkpt lat="35.550049" lon="138.807749">
 <ele>1727.9</ele>
 <time>2020-03-24T15:42:35Z</time>
</trkpt>
<trkpt lat="35.550049" lon="138.807642">
 <ele>1724.5</ele>
 <time>2020-03-24T15:42:35Z</time>
</trkpt>
<trkpt lat="35.550023" lon="138.807545">
 <ele>1722.9</ele>
 <time>2020-03-24T15:42:35Z</time>
</trkpt>
<trkpt lat="35.549971" lon="138.807459">
 <ele>1721.3</ele>
 <time>2020-03-24T15:42:35Z</time>
</trkpt>
<trkpt lat="35.549903" lon="138.807395">
 <ele>1720</ele>
 <time>2020-03-24T15:42:36Z</time>
</trkpt>
<trkpt lat="35.549834" lon="138.807341">
 <ele>1720.5</ele>
 <time>2020-03-24T15:42:36Z</time>
</trkpt>
<trkpt lat="35.549740" lon="138.807299">
 <ele>1722.5</ele>
 <time>2020-03-24T15:42:36Z</time>
</trkpt>
<trkpt lat="35.549688" lon="138.807213">
 <ele>1724.8</ele>
 <time>2020-03-24T15:42:36Z</time>
</trkpt>
<trkpt lat="35.549594" lon="138.807073">
 <ele>1726.6</ele>
 <time>2020-03-24T15:42:36Z</time>
</trkpt>
<trkpt lat="35.549499" lon="138.806977">
 <ele>1727.2</ele>
 <time>2020-03-24T15:42:36Z</time>
</trkpt>
<trkpt lat="35.549396" lon="138.806955">
 <ele>1728.6</ele>
 <time>2020-03-24T15:42:36Z</time>
</trkpt>
<trkpt lat="35.549319" lon="138.806955">
 <ele>1729.2</ele>
 <time>2020-03-24T15:42:36Z</time>
</trkpt>
<trkpt lat="35.549216" lon="138.806902">
 <ele>1731.5</ele>
 <time>2020-03-24T15:42:36Z</time>
</trkpt>
<trkpt lat="35.549165" lon="138.806816">
 <ele>1733.7</ele>
 <time>2020-03-24T15:42:36Z</time>
</trkpt>
<trkpt lat="35.549096" lon="138.806644">
 <ele>1735.7</ele>
 <time>2020-03-24T15:42:37Z</time>
</trkpt>
<trkpt lat="35.549044" lon="138.806537">
 <ele>1736.1</ele>
 <time>2020-03-24T15:42:37Z</time>
</trkpt>
<trkpt lat="35.548976" lon="138.806472">
 <ele>1735.6</ele>
 <time>2020-03-24T15:42:37Z</time>
</trkpt>
<trkpt lat="35.548856" lon="138.806376">
 <ele>1733.8</ele>
 <time>2020-03-24T15:42:37Z</time>
</trkpt>
<trkpt lat="35.548744" lon="138.806333">
 <ele>1733.2</ele>
 <time>2020-03-24T15:42:37Z</time>
</trkpt>
<trkpt lat="35.548615" lon="138.806279">
 <ele>1732.4</ele>
 <time>2020-03-24T15:42:37Z</time>
</trkpt>
<trkpt lat="35.548401" lon="138.806161">
 <ele>1730.2</ele>
 <time>2020-03-24T15:42:37Z</time>
</trkpt>
<trkpt lat="35.548246" lon="138.806086">
 <ele>1728.6</ele>
 <time>2020-03-24T15:42:37Z</time>
</trkpt>
<trkpt lat="35.548220" lon="138.805979">
 <ele>1729</ele>
 <time>2020-03-24T15:42:37Z</time>
</trkpt>
<trkpt lat="35.548289" lon="138.805861">
 <ele>1724.2</ele>
 <time>2020-03-24T15:42:37Z</time>
</trkpt>
<trkpt lat="35.548315" lon="138.805796">
 <ele>1723</ele>
 <time>2020-03-24T15:42:38Z</time>
</trkpt>
<trkpt lat="35.548315" lon="138.805721">
 <ele>1721</ele>
 <time>2020-03-24T15:42:38Z</time>
</trkpt>
<trkpt lat="35.548298" lon="138.805657">
 <ele>1720</ele>
 <time>2020-03-24T15:42:38Z</time>
</trkpt>
<trkpt lat="35.548306" lon="138.805528">
 <ele>1717.3</ele>
 <time>2020-03-24T15:42:38Z</time>
</trkpt>
<trkpt lat="35.548323" lon="138.805432">
 <ele>1714.5</ele>
 <time>2020-03-24T15:42:38Z</time>
</trkpt>
<trkpt lat="35.548332" lon="138.805335">
 <ele>1712.7</ele>
 <time>2020-03-24T15:42:38Z</time>
</trkpt>
<trkpt lat="35.548349" lon="138.805153">
 <ele>1711.8</ele>
 <time>2020-03-24T15:42:38Z</time>
</trkpt>
<trkpt lat="35.548383" lon="138.805045">
 <ele>1709.8</ele>
 <time>2020-03-24T15:42:38Z</time>
</trkpt>
<trkpt lat="35.548452" lon="138.804852">
 <ele>1705.6</ele>
 <time>2020-03-24T15:42:38Z</time>
</trkpt>
<trkpt lat="35.548529" lon="138.804498">
 <ele>1698.5</ele>
 <time>2020-03-24T15:42:39Z</time>
</trkpt>
<trkpt lat="35.548624" lon="138.804123">
 <ele>1692</ele>
 <time>2020-03-24T15:42:39Z</time>
</trkpt>
<trkpt lat="35.548658" lon="138.803951">
 <ele>1689.2</ele>
 <time>2020-03-24T15:42:39Z</time>
</trkpt>
<trkpt lat="35.548632" lon="138.803876">
 <ele>1689.2</ele>
 <time>2020-03-24T15:42:39Z</time>
</trkpt>
<trkpt lat="35.548624" lon="138.803715">
 <ele>1685.8</ele>
 <time>2020-03-24T15:42:39Z</time>
</trkpt>
<trkpt lat="35.548572" lon="138.803597">
 <ele>1684.4</ele>
 <time>2020-03-24T15:42:39Z</time>
</trkpt>
<trkpt lat="35.548512" lon="138.803382">
 <ele>1680.1</ele>
 <time>2020-03-24T15:42:39Z</time>
</trkpt>
<trkpt lat="35.548461" lon="138.803179">
 <ele>1678.2</ele>
 <time>2020-03-24T15:42:39Z</time>
</trkpt>
<trkpt lat="35.548461" lon="138.802986">
 <ele>1675.2</ele>
 <time>2020-03-24T15:42:39Z</time>
</trkpt>
<trkpt lat="35.548435" lon="138.802481">
 <ele>1667.7</ele>
 <time>2020-03-24T15:42:39Z</time>
</trkpt>
<trkpt lat="35.548444" lon="138.802213">
 <ele>1665.6</ele>
 <time>2020-03-24T15:42:40Z</time>
</trkpt>
<trkpt lat="35.548426" lon="138.801956">
 <ele>1664</ele>
 <time>2020-03-24T15:42:40Z</time>
</trkpt>
<trkpt lat="35.548366" lon="138.801848">
 <ele>1663.3</ele>
 <time>2020-03-24T15:42:40Z</time>
</trkpt>
<trkpt lat="35.548280" lon="138.801687">
 <ele>1662.4</ele>
 <time>2020-03-24T15:42:40Z</time>
</trkpt>
<trkpt lat="35.548238" lon="138.801526">
 <ele>1660.2</ele>
 <time>2020-03-24T15:42:40Z</time>
</trkpt>
<trkpt lat="35.548169" lon="138.801408">
 <ele>1660.3</ele>
 <time>2020-03-24T15:42:40Z</time>
</trkpt>
<trkpt lat="35.548100" lon="138.801301">
 <ele>1659.6</ele>
 <time>2020-03-24T15:42:40Z</time>
</trkpt>
<trkpt lat="35.548032" lon="138.801226">
 <ele>1659.1</ele>
 <time>2020-03-24T15:42:40Z</time>
</trkpt>
<trkpt lat="35.547920" lon="138.801194">
 <ele>1661.1</ele>
 <time>2020-03-24T15:42:40Z</time>
</trkpt>
<trkpt lat="35.547834" lon="138.801162">
 <ele>1658.9</ele>
 <time>2020-03-24T15:42:40Z</time>
</trkpt>
<trkpt lat="35.547637" lon="138.801087">
 <ele>1654.9</ele>
 <time>2020-03-24T15:42:41Z</time>
</trkpt>
<trkpt lat="35.547499" lon="138.801011">
 <ele>1653.4</ele>
 <time>2020-03-24T15:42:41Z</time>
</trkpt>
<trkpt lat="35.547345" lon="138.800915">
 <ele>1654.1</ele>
 <time>2020-03-24T15:42:41Z</time>
</trkpt>
<trkpt lat="35.547345" lon="138.800765">
 <ele>1650.2</ele>
 <time>2020-03-24T15:42:41Z</time>
</trkpt>
<trkpt lat="35.547371" lon="138.800647">
 <ele>1646.9</ele>
 <time>2020-03-24T15:42:41Z</time>
</trkpt>
<trkpt lat="35.547422" lon="138.800486">
 <ele>1643.6</ele>
 <time>2020-03-24T15:42:41Z</time>
</trkpt>
<trkpt lat="35.547474" lon="138.800293">
 <ele>1641.4</ele>
 <time>2020-03-24T15:42:41Z</time>
</trkpt>
<trkpt lat="35.547542" lon="138.800164">
 <ele>1637</ele>
 <time>2020-03-24T15:42:41Z</time>
</trkpt>
<trkpt lat="35.547611" lon="138.799992">
 <ele>1633.3</ele>
 <time>2020-03-24T15:42:41Z</time>
</trkpt>
<trkpt lat="35.547645" lon="138.799885">
 <ele>1631</ele>
 <time>2020-03-24T15:42:42Z</time>
</trkpt>
<trkpt lat="35.547663" lon="138.799810">
 <ele>1628.4</ele>
 <time>2020-03-24T15:42:42Z</time>
</trkpt>
<trkpt lat="35.547714" lon="138.799853">
 <ele>1627.5</ele>
 <time>2020-03-24T15:42:42Z</time>
</trkpt>
<trkpt lat="35.547757" lon="138.799949">
 <ele>1625.6</ele>
 <time>2020-03-24T15:42:42Z</time>
</trkpt>
<trkpt lat="35.547817" lon="138.799917">
 <ele>1623</ele>
 <time>2020-03-24T15:42:42Z</time>
</trkpt>
<trkpt lat="35.547843" lon="138.799874">
 <ele>1621.8</ele>
 <time>2020-03-24T15:42:42Z</time>
</trkpt>
<trkpt lat="35.547834" lon="138.799810">
 <ele>1621.4</ele>
 <time>2020-03-24T15:42:42Z</time>
</trkpt>
<trkpt lat="35.547817" lon="138.799745">
 <ele>1620.2</ele>
 <time>2020-03-24T15:42:42Z</time>
</trkpt>
<trkpt lat="35.547783" lon="138.799681">
 <ele>1618.6</ele>
 <time>2020-03-24T15:42:42Z</time>
</trkpt>
<trkpt lat="35.547783" lon="138.799638">
 <ele>1617.4</ele>
 <time>2020-03-24T15:42:42Z</time>
</trkpt>
<trkpt lat="35.547834" lon="138.799638">
 <ele>1616.3</ele>
 <time>2020-03-24T15:42:43Z</time>
</trkpt>
<trkpt lat="35.547894" lon="138.799649">
 <ele>1615.5</ele>
 <time>2020-03-24T15:42:43Z</time>
</trkpt>
<trkpt lat="35.547989" lon="138.799649">
 <ele>1612.5</ele>
 <time>2020-03-24T15:42:43Z</time>
</trkpt>
<trkpt lat="35.548023" lon="138.799649">
 <ele>1611.6</ele>
 <time>2020-03-24T15:42:43Z</time>
</trkpt>
<trkpt lat="35.548049" lon="138.799595">
 <ele>1609.4</ele>
 <time>2020-03-24T15:42:43Z</time>
</trkpt>
<trkpt lat="35.547989" lon="138.799542">
 <ele>1608.8</ele>
 <time>2020-03-24T15:42:43Z</time>
</trkpt>
<trkpt lat="35.547911" lon="138.799466">
 <ele>1606.2</ele>
 <time>2020-03-24T15:42:43Z</time>
</trkpt>
<trkpt lat="35.547946" lon="138.799413">
 <ele>1604.1</ele>
 <time>2020-03-24T15:42:43Z</time>
</trkpt>
<trkpt lat="35.548049" lon="138.799413">
 <ele>1602.4</ele>
 <time>2020-03-24T15:42:43Z</time>
</trkpt>
<trkpt lat="35.548143" lon="138.799348">
 <ele>1601</ele>
 <time>2020-03-24T15:42:43Z</time>
</trkpt>
<trkpt lat="35.548229" lon="138.799306">
 <ele>1599.1</ele>
 <time>2020-03-24T15:42:44Z</time>
</trkpt>
<trkpt lat="35.548332" lon="138.799263">
 <ele>1596.6</ele>
 <time>2020-03-24T15:42:44Z</time>
</trkpt>
<trkpt lat="35.548495" lon="138.799209">
 <ele>1590.8</ele>
 <time>2020-03-24T15:42:44Z</time>
</trkpt>
<trkpt lat="35.548572" lon="138.799230">
 <ele>1590.3</ele>
 <time>2020-03-24T15:42:44Z</time>
</trkpt>
<trkpt lat="35.548650" lon="138.799230">
 <ele>1588.7</ele>
 <time>2020-03-24T15:42:44Z</time>
</trkpt>
<trkpt lat="35.548821" lon="138.799145">
 <ele>1585.1</ele>
 <time>2020-03-24T15:42:44Z</time>
</trkpt>
<trkpt lat="35.548984" lon="138.799048">
 <ele>1584.2</ele>
 <time>2020-03-24T15:42:44Z</time>
</trkpt>
<trkpt lat="35.549122" lon="138.798909">
 <ele>1583.6</ele>
 <time>2020-03-24T15:42:44Z</time>
</trkpt>
<trkpt lat="35.549268" lon="138.798780">
 <ele>1579.3</ele>
 <time>2020-03-24T15:42:44Z</time>
</trkpt>
<trkpt lat="35.549396" lon="138.798769">
 <ele>1577.6</ele>
 <time>2020-03-24T15:42:45Z</time>
</trkpt>
<trkpt lat="35.549516" lon="138.798769">
 <ele>1574.6</ele>
 <time>2020-03-24T15:42:45Z</time>
</trkpt>
<trkpt lat="35.549628" lon="138.798683">
 <ele>1572.2</ele>
 <time>2020-03-24T15:42:45Z</time>
</trkpt>
<trkpt lat="35.549783" lon="138.798640">
 <ele>1568.2</ele>
 <time>2020-03-24T15:42:45Z</time>
</trkpt>
<trkpt lat="35.549868" lon="138.798640">
 <ele>1564.5</ele>
 <time>2020-03-24T15:42:45Z</time>
</trkpt>
<trkpt lat="35.549954" lon="138.798694">
 <ele>1562.9</ele>
 <time>2020-03-24T15:42:45Z</time>
</trkpt>
<trkpt lat="35.550014" lon="138.798683">
 <ele>1561.1</ele>
 <time>2020-03-24T15:42:45Z</time>
</trkpt>
<trkpt lat="35.550057" lon="138.798630">
 <ele>1559.7</ele>
 <time>2020-03-24T15:42:45Z</time>
</trkpt>
<trkpt lat="35.550152" lon="138.798597">
 <ele>1556.4</ele>
 <time>2020-03-24T15:42:45Z</time>
</trkpt>
<trkpt lat="35.550212" lon="138.798597">
 <ele>1554.9</ele>
 <time>2020-03-24T15:42:45Z</time>
</trkpt>
<trkpt lat="35.550323" lon="138.798597">
 <ele>1552.2</ele>
 <time>2020-03-24T15:42:46Z</time>
</trkpt>
<trkpt lat="35.550409" lon="138.798608">
 <ele>1550.6</ele>
 <time>2020-03-24T15:42:46Z</time>
</trkpt>
<trkpt lat="35.550529" lon="138.798587">
 <ele>1548.6</ele>
 <time>2020-03-24T15:42:46Z</time>
</trkpt>
<trkpt lat="35.550607" lon="138.798555">
 <ele>1548.1</ele>
 <time>2020-03-24T15:42:46Z</time>
</trkpt>
<trkpt lat="35.550761" lon="138.798533">
 <ele>1547.4</ele>
 <time>2020-03-24T15:42:46Z</time>
</trkpt>
<trkpt lat="35.550993" lon="138.798533">
 <ele>1545.5</ele>
 <time>2020-03-24T15:42:46Z</time>
</trkpt>
<trkpt lat="35.551070" lon="138.798490">
 <ele>1544.1</ele>
 <time>2020-03-24T15:42:46Z</time>
</trkpt>
<trkpt lat="35.551164" lon="138.798404">
 <ele>1541.8</ele>
 <time>2020-03-24T15:42:46Z</time>
</trkpt>
<trkpt lat="35.551259" lon="138.798404">
 <ele>1539.9</ele>
 <time>2020-03-24T15:42:46Z</time>
</trkpt>
<trkpt lat="35.551353" lon="138.798415">
 <ele>1537.8</ele>
 <time>2020-03-24T15:42:47Z</time>
</trkpt>
<trkpt lat="35.551448" lon="138.798458">
 <ele>1533.4</ele>
 <time>2020-03-24T15:42:47Z</time>
</trkpt>
<trkpt lat="35.551568" lon="138.798533">
 <ele>1529</ele>
 <time>2020-03-24T15:42:47Z</time>
</trkpt>
<trkpt lat="35.551654" lon="138.798619">
 <ele>1523.8</ele>
 <time>2020-03-24T15:42:47Z</time>
</trkpt>
<trkpt lat="35.551714" lon="138.798705">
 <ele>1519.8</ele>
 <time>2020-03-24T15:42:47Z</time>
</trkpt>
<trkpt lat="35.551774" lon="138.798662">
 <ele>1519.9</ele>
 <time>2020-03-24T15:42:47Z</time>
</trkpt>
<trkpt lat="35.551877" lon="138.798651">
 <ele>1516.8</ele>
 <time>2020-03-24T15:42:47Z</time>
</trkpt>
<trkpt lat="35.551963" lon="138.798694">
 <ele>1512.8</ele>
 <time>2020-03-24T15:42:47Z</time>
</trkpt>
<trkpt lat="35.552040" lon="138.798651">
 <ele>1510.3</ele>
 <time>2020-03-24T15:42:47Z</time>
</trkpt>
<trkpt lat="35.552091" lon="138.798619">
 <ele>1509.2</ele>
 <time>2020-03-24T15:42:47Z</time>
</trkpt>
<trkpt lat="35.552160" lon="138.798587">
 <ele>1505.8</ele>
 <time>2020-03-24T15:42:48Z</time>
</trkpt>
<trkpt lat="35.552212" lon="138.798587">
 <ele>1502.7</ele>
 <time>2020-03-24T15:42:48Z</time>
</trkpt>
<trkpt lat="35.552254" lon="138.798694">
 <ele>1501.3</ele>
 <time>2020-03-24T15:42:48Z</time>
</trkpt>
<trkpt lat="35.552254" lon="138.798780">
 <ele>1499.3</ele>
 <time>2020-03-24T15:42:48Z</time>
</trkpt>
<trkpt lat="35.552297" lon="138.798833">
 <ele>1496.1</ele>
 <time>2020-03-24T15:42:48Z</time>
</trkpt>
<trkpt lat="35.552357" lon="138.798844">
 <ele>1491.4</ele>
 <time>2020-03-24T15:42:48Z</time>
</trkpt>
<trkpt lat="35.552418" lon="138.798855">
 <ele>1489.2</ele>
 <time>2020-03-24T15:42:48Z</time>
</trkpt>
<trkpt lat="35.552495" lon="138.798855">
 <ele>1487.3</ele>
 <time>2020-03-24T15:42:48Z</time>
</trkpt>
<trkpt lat="35.552581" lon="138.798833">
 <ele>1485.3</ele>
 <time>2020-03-24T15:42:48Z</time>
</trkpt>
<trkpt lat="35.552632" lon="138.798780">
 <ele>1483.1</ele>
 <time>2020-03-24T15:42:49Z</time>
</trkpt>
<trkpt lat="35.552684" lon="138.798823">
 <ele>1482.2</ele>
 <time>2020-03-24T15:42:49Z</time>
</trkpt>
<trkpt lat="35.552684" lon="138.798919">
 <ele>1479.4</ele>
 <time>2020-03-24T15:42:49Z</time>
</trkpt>
<trkpt lat="35.552641" lon="138.799016">
 <ele>1476.8</ele>
 <time>2020-03-24T15:42:49Z</time>
</trkpt>
<trkpt lat="35.552581" lon="138.799102">
 <ele>1473.3</ele>
 <time>2020-03-24T15:42:49Z</time>
</trkpt>
<trkpt lat="35.552521" lon="138.799188">
 <ele>1469.8</ele>
 <time>2020-03-24T15:42:49Z</time>
</trkpt>
<trkpt lat="35.552443" lon="138.799263">
 <ele>1471</ele>
 <time>2020-03-24T15:42:49Z</time>
</trkpt>
<trkpt lat="35.552357" lon="138.799370">
 <ele>1469.5</ele>
 <time>2020-03-24T15:42:49Z</time>
</trkpt>
<trkpt lat="35.552263" lon="138.799413">
 <ele>1468.5</ele>
 <time>2020-03-24T15:42:49Z</time>
</trkpt>
<trkpt lat="35.552109" lon="138.799509">
 <ele>1466.1</ele>
 <time>2020-03-24T15:42:49Z</time>
</trkpt>
<trkpt lat="35.552014" lon="138.799574">
 <ele>1463.6</ele>
 <time>2020-03-24T15:42:50Z</time>
</trkpt>
<trkpt lat="35.552074" lon="138.799606">
 <ele>1460.4</ele>
 <time>2020-03-24T15:42:50Z</time>
</trkpt>
<trkpt lat="35.552177" lon="138.799606">
 <ele>1458.8</ele>
 <time>2020-03-24T15:42:50Z</time>
</trkpt>
<trkpt lat="35.552297" lon="138.799542">
 <ele>1460.1</ele>
 <time>2020-03-24T15:42:50Z</time>
</trkpt>
<trkpt lat="35.552375" lon="138.799552">
 <ele>1457</ele>
 <time>2020-03-24T15:42:50Z</time>
</trkpt>
<trkpt lat="35.552503" lon="138.799488">
 <ele>1456.9</ele>
 <time>2020-03-24T15:42:50Z</time>
</trkpt>
<trkpt lat="35.552701" lon="138.799413">
 <ele>1452.7</ele>
 <time>2020-03-24T15:42:50Z</time>
</trkpt>
<trkpt lat="35.552821" lon="138.799381">
 <ele>1452.2</ele>
 <time>2020-03-24T15:42:50Z</time>
</trkpt>
<trkpt lat="35.553061" lon="138.799338">
 <ele>1446.2</ele>
 <time>2020-03-24T15:42:50Z</time>
</trkpt>
<trkpt lat="35.553181" lon="138.799252">
 <ele>1444.6</ele>
 <time>2020-03-24T15:42:50Z</time>
</trkpt>
<trkpt lat="35.553310" lon="138.799220">
 <ele>1440.4</ele>
 <time>2020-03-24T15:42:51Z</time>
</trkpt>
<trkpt lat="35.553447" lon="138.799177">
 <ele>1436.5</ele>
 <time>2020-03-24T15:42:51Z</time>
</trkpt>
<trkpt lat="35.553576" lon="138.799102">
 <ele>1433</ele>
 <time>2020-03-24T15:42:51Z</time>
</trkpt>
<trkpt lat="35.553645" lon="138.799112">
 <ele>1430.2</ele>
 <time>2020-03-24T15:42:51Z</time>
</trkpt>
<trkpt lat="35.553611" lon="138.799188">
 <ele>1427.7</ele>
 <time>2020-03-24T15:42:51Z</time>
</trkpt>
<trkpt lat="35.553576" lon="138.799273">
 <ele>1424.9</ele>
 <time>2020-03-24T15:42:51Z</time>
</trkpt>
<trkpt lat="35.553508" lon="138.799359">
 <ele>1424</ele>
 <time>2020-03-24T15:42:51Z</time>
</trkpt>
<trkpt lat="35.553422" lon="138.799466">
 <ele>1423.8</ele>
 <time>2020-03-24T15:42:51Z</time>
</trkpt>
<trkpt lat="35.553336" lon="138.799563">
 <ele>1420.6</ele>
 <time>2020-03-24T15:42:51Z</time>
</trkpt>
<trkpt lat="35.553216" lon="138.799702">
 <ele>1416.3</ele>
 <time>2020-03-24T15:42:52Z</time>
</trkpt>
<trkpt lat="35.553250" lon="138.799767">
 <ele>1414</ele>
 <time>2020-03-24T15:42:52Z</time>
</trkpt>
<trkpt lat="35.553302" lon="138.799756">
 <ele>1412.8</ele>
 <time>2020-03-24T15:42:52Z</time>
</trkpt>
<trkpt lat="35.553362" lon="138.799735">
 <ele>1410.4</ele>
 <time>2020-03-24T15:42:52Z</time>
</trkpt>
<trkpt lat="35.553439" lon="138.799735">
 <ele>1408.4</ele>
 <time>2020-03-24T15:42:52Z</time>
</trkpt>
<trkpt lat="35.553542" lon="138.799692">
 <ele>1407</ele>
 <time>2020-03-24T15:42:52Z</time>
</trkpt>
<trkpt lat="35.553653" lon="138.799649">
 <ele>1404.8</ele>
 <time>2020-03-24T15:42:52Z</time>
</trkpt>
<trkpt lat="35.553756" lon="138.799574">
 <ele>1403.1</ele>
 <time>2020-03-24T15:42:52Z</time>
</trkpt>
<trkpt lat="35.553894" lon="138.799466">
 <ele>1400.9</ele>
 <time>2020-03-24T15:42:52Z</time>
</trkpt>
<trkpt lat="35.554048" lon="138.799306">
 <ele>1399.1</ele>
 <time>2020-03-24T15:42:52Z</time>
</trkpt>
<trkpt lat="35.554254" lon="138.799123">
 <ele>1394.8</ele>
 <time>2020-03-24T15:42:53Z</time>
</trkpt>
<trkpt lat="35.554366" lon="138.798973">
 <ele>1391.1</ele>
 <time>2020-03-24T15:42:53Z</time>
</trkpt>
<trkpt lat="35.554400" lon="138.798898">
 <ele>1390</ele>
 <time>2020-03-24T15:42:53Z</time>
</trkpt>
<trkpt lat="35.554417" lon="138.798801">
 <ele>1388.9</ele>
 <time>2020-03-24T15:42:53Z</time>
</trkpt>
<trkpt lat="35.554366" lon="138.798715">
 <ele>1387.9</ele>
 <time>2020-03-24T15:42:53Z</time>
</trkpt>
<trkpt lat="35.554297" lon="138.798576">
 <ele>1385.1</ele>
 <time>2020-03-24T15:42:53Z</time>
</trkpt>
<trkpt lat="35.554323" lon="138.798447">
 <ele>1381.9</ele>
 <time>2020-03-24T15:42:53Z</time>
</trkpt>
<trkpt lat="35.554400" lon="138.798490">
 <ele>1378.6</ele>
 <time>2020-03-24T15:42:53Z</time>
</trkpt>
<trkpt lat="35.554503" lon="138.798555">
 <ele>1377</ele>
 <time>2020-03-24T15:42:53Z</time>
</trkpt>
<trkpt lat="35.554606" lon="138.798651">
 <ele>1374.9</ele>
 <time>2020-03-24T15:42:54Z</time>
</trkpt>
<trkpt lat="35.554692" lon="138.798683">
 <ele>1371.6</ele>
 <time>2020-03-24T15:42:54Z</time>
</trkpt>
<trkpt lat="35.554726" lon="138.798630">
 <ele>1368.9</ele>
 <time>2020-03-24T15:42:54Z</time>
</trkpt>
<trkpt lat="35.554683" lon="138.798544">
 <ele>1369.2</ele>
 <time>2020-03-24T15:42:54Z</time>
</trkpt>
<trkpt lat="35.554623" lon="138.798415">
 <ele>1367.2</ele>
 <time>2020-03-24T15:42:54Z</time>
</trkpt>
<trkpt lat="35.554641" lon="138.798318">
 <ele>1365.3</ele>
 <time>2020-03-24T15:42:54Z</time>
</trkpt>
<trkpt lat="35.554709" lon="138.798372">
 <ele>1363.6</ele>
 <time>2020-03-24T15:42:54Z</time>
</trkpt>
<trkpt lat="35.554769" lon="138.798426">
 <ele>1361.9</ele>
 <time>2020-03-24T15:42:54Z</time>
</trkpt>
<trkpt lat="35.554855" lon="138.798512">
 <ele>1359.7</ele>
 <time>2020-03-24T15:42:54Z</time>
</trkpt>
<trkpt lat="35.554915" lon="138.798544">
 <ele>1359</ele>
 <time>2020-03-24T15:42:54Z</time>
</trkpt>
<trkpt lat="35.554932" lon="138.798426">
 <ele>1357.9</ele>
 <time>2020-03-24T15:42:55Z</time>
</trkpt>
<trkpt lat="35.554958" lon="138.798351">
 <ele>1356.8</ele>
 <time>2020-03-24T15:42:55Z</time>
</trkpt>
<trkpt lat="35.554975" lon="138.798254">
 <ele>1354.4</ele>
 <time>2020-03-24T15:42:55Z</time>
</trkpt>
<trkpt lat="35.555027" lon="138.798233">
 <ele>1353.4</ele>
 <time>2020-03-24T15:42:55Z</time>
</trkpt>
<trkpt lat="35.555121" lon="138.798265">
 <ele>1350.2</ele>
 <time>2020-03-24T15:42:55Z</time>
</trkpt>
<trkpt lat="35.555216" lon="138.798340">
 <ele>1347.7</ele>
 <time>2020-03-24T15:42:55Z</time>
</trkpt>
<trkpt lat="35.555301" lon="138.798383">
 <ele>1346.9</ele>
 <time>2020-03-24T15:42:55Z</time>
</trkpt>
<trkpt lat="35.555319" lon="138.798297">
 <ele>1345.1</ele>
 <time>2020-03-24T15:42:55Z</time>
</trkpt>
<trkpt lat="35.555284" lon="138.798136">
 <ele>1343.6</ele>
 <time>2020-03-24T15:42:55Z</time>
</trkpt>
<trkpt lat="35.555259" lon="138.798018">
 <ele>1342.8</ele>
 <time>2020-03-24T15:42:55Z</time>
</trkpt>
<trkpt lat="35.555276" lon="138.797954">
 <ele>1340.6</ele>
 <time>2020-03-24T15:42:56Z</time>
</trkpt>
<trkpt lat="35.555319" lon="138.797922">
 <ele>1339.8</ele>
 <time>2020-03-24T15:42:56Z</time>
</trkpt>
<trkpt lat="35.555396" lon="138.797954">
 <ele>1338</ele>
 <time>2020-03-24T15:42:56Z</time>
</trkpt>
<trkpt lat="35.555439" lon="138.798018">
 <ele>1337.5</ele>
 <time>2020-03-24T15:42:56Z</time>
</trkpt>
<trkpt lat="35.555525" lon="138.798104">
 <ele>1335.3</ele>
 <time>2020-03-24T15:42:56Z</time>
</trkpt>
<trkpt lat="35.555619" lon="138.798147">
 <ele>1334.7</ele>
 <time>2020-03-24T15:42:56Z</time>
</trkpt>
<trkpt lat="35.555688" lon="138.798115">
 <ele>1333.4</ele>
 <time>2020-03-24T15:42:56Z</time>
</trkpt>
<trkpt lat="35.555739" lon="138.797986">
 <ele>1330.1</ele>
 <time>2020-03-24T15:42:56Z</time>
</trkpt>
<trkpt lat="35.555774" lon="138.797846">
 <ele>1327.7</ele>
 <time>2020-03-24T15:42:56Z</time>
</trkpt>
<trkpt lat="35.555842" lon="138.797632">
 <ele>1324.7</ele>
 <time>2020-03-24T15:42:57Z</time>
</trkpt>
<trkpt lat="35.555877" lon="138.797482">
 <ele>1320.9</ele>
 <time>2020-03-24T15:42:57Z</time>
</trkpt>
<trkpt lat="35.555894" lon="138.797353">
 <ele>1320</ele>
 <time>2020-03-24T15:42:57Z</time>
</trkpt>
<trkpt lat="35.555919" lon="138.797235">
 <ele>1317.9</ele>
 <time>2020-03-24T15:42:57Z</time>
</trkpt>
<trkpt lat="35.555937" lon="138.797138">
 <ele>1316.2</ele>
 <time>2020-03-24T15:42:57Z</time>
</trkpt>
<trkpt lat="35.555971" lon="138.796988">
 <ele>1314.9</ele>
 <time>2020-03-24T15:42:57Z</time>
</trkpt>
<trkpt lat="35.555988" lon="138.796838">
 <ele>1312.8</ele>
 <time>2020-03-24T15:42:57Z</time>
</trkpt>
<trkpt lat="35.556031" lon="138.796677">
 <ele>1310.3</ele>
 <time>2020-03-24T15:42:57Z</time>
</trkpt>
<trkpt lat="35.556065" lon="138.796537">
 <ele>1308.1</ele>
 <time>2020-03-24T15:42:57Z</time>
</trkpt>
<trkpt lat="35.556100" lon="138.796409">
 <ele>1305.5</ele>
 <time>2020-03-24T15:42:57Z</time>
</trkpt>
<trkpt lat="35.556177" lon="138.796323">
 <ele>1302.6</ele>
 <time>2020-03-24T15:42:58Z</time>
</trkpt>
<trkpt lat="35.556254" lon="138.796312">
 <ele>1301</ele>
 <time>2020-03-24T15:42:58Z</time>
</trkpt>
<trkpt lat="35.556357" lon="138.796312">
 <ele>1300</ele>
 <time>2020-03-24T15:42:58Z</time>
</trkpt>
<trkpt lat="35.556417" lon="138.796259">
 <ele>1298.6</ele>
 <time>2020-03-24T15:42:58Z</time>
</trkpt>
<trkpt lat="35.556383" lon="138.796173">
 <ele>1298.1</ele>
 <time>2020-03-24T15:42:58Z</time>
</trkpt>
<trkpt lat="35.556331" lon="138.796055">
 <ele>1296.8</ele>
 <time>2020-03-24T15:42:58Z</time>
</trkpt>
<trkpt lat="35.556246" lon="138.795947">
 <ele>1296.1</ele>
 <time>2020-03-24T15:42:58Z</time>
</trkpt>
<trkpt lat="35.556151" lon="138.795894">
 <ele>1295.6</ele>
 <time>2020-03-24T15:42:58Z</time>
</trkpt>
<trkpt lat="35.556040" lon="138.795829">
 <ele>1293.7</ele>
 <time>2020-03-24T15:42:58Z</time>
</trkpt>
<trkpt lat="35.555980" lon="138.795786">
 <ele>1293.2</ele>
 <time>2020-03-24T15:42:59Z</time>
</trkpt>
<trkpt lat="35.556057" lon="138.795679">
 <ele>1292.4</ele>
 <time>2020-03-24T15:42:59Z</time>
</trkpt>
<trkpt lat="35.556288" lon="138.795475">
 <ele>1288.1</ele>
 <time>2020-03-24T15:42:59Z</time>
</trkpt>
<trkpt lat="35.556452" lon="138.795347">
 <ele>1286.7</ele>
 <time>2020-03-24T15:42:59Z</time>
</trkpt>
<trkpt lat="35.556572" lon="138.795400">
 <ele>1287.7</ele>
 <time>2020-03-24T15:42:59Z</time>
</trkpt>
<trkpt lat="35.556761" lon="138.795529">
 <ele>1284.6</ele>
 <time>2020-03-24T15:42:59Z</time>
</trkpt>
<trkpt lat="35.556941" lon="138.795583">
 <ele>1281.9</ele>
 <time>2020-03-24T15:42:59Z</time>
</trkpt>
<trkpt lat="35.557061" lon="138.795561">
 <ele>1280.5</ele>
 <time>2020-03-24T15:42:59Z</time>
</trkpt>
<trkpt lat="35.557121" lon="138.795465">
 <ele>1279.1</ele>
 <time>2020-03-24T15:42:59Z</time>
</trkpt>
<trkpt lat="35.557147" lon="138.795357">
 <ele>1277.8</ele>
 <time>2020-03-24T15:42:59Z</time>
</trkpt>
<trkpt lat="35.557138" lon="138.795132">
 <ele>1275.2</ele>
 <time>2020-03-24T15:43:00Z</time>
</trkpt>
<trkpt lat="35.557104" lon="138.794971">
 <ele>1273.8</ele>
 <time>2020-03-24T15:43:00Z</time>
</trkpt>
<trkpt lat="35.557035" lon="138.794724">
 <ele>1272.3</ele>
 <time>2020-03-24T15:43:00Z</time>
</trkpt>
<trkpt lat="35.556906" lon="138.794392">
 <ele>1269.7</ele>
 <time>2020-03-24T15:43:00Z</time>
</trkpt>
<trkpt lat="35.556761" lon="138.794134">
 <ele>1266.5</ele>
 <time>2020-03-24T15:43:00Z</time>
</trkpt>
<trkpt lat="35.556675" lon="138.793973">
 <ele>1265.1</ele>
 <time>2020-03-24T15:43:00Z</time>
</trkpt>
<trkpt lat="35.556580" lon="138.793920">
 <ele>1265.5</ele>
 <time>2020-03-24T15:43:00Z</time>
</trkpt>
<trkpt lat="35.556426" lon="138.793963">
 <ele>1263.7</ele>
 <time>2020-03-24T15:43:00Z</time>
</trkpt>
<trkpt lat="35.556280" lon="138.794005">
 <ele>1261.3</ele>
 <time>2020-03-24T15:43:00Z</time>
</trkpt>
<trkpt lat="35.556194" lon="138.793930">
 <ele>1258.8</ele>
 <time>2020-03-24T15:43:00Z</time>
</trkpt>
<trkpt lat="35.555997" lon="138.793490">
 <ele>1254.7</ele>
 <time>2020-03-24T15:43:01Z</time>
</trkpt>
<trkpt lat="35.555988" lon="138.793372">
 <ele>1253.9</ele>
 <time>2020-03-24T15:43:01Z</time>
</trkpt>
<trkpt lat="35.555997" lon="138.793287">
 <ele>1252.3</ele>
 <time>2020-03-24T15:43:01Z</time>
</trkpt>
<trkpt lat="35.556074" lon="138.793222">
 <ele>1252.1</ele>
 <time>2020-03-24T15:43:01Z</time>
</trkpt>
<trkpt lat="35.556271" lon="138.793169">
 <ele>1249.2</ele>
 <time>2020-03-24T15:43:01Z</time>
</trkpt>
<trkpt lat="35.556357" lon="138.793190">
 <ele>1251</ele>
 <time>2020-03-24T15:43:01Z</time>
</trkpt>
<trkpt lat="35.556589" lon="138.793297">
 <ele>1251.9</ele>
 <time>2020-03-24T15:43:01Z</time>
</trkpt>
<trkpt lat="35.556718" lon="138.793340">
 <ele>1246.6</ele>
 <time>2020-03-24T15:43:01Z</time>
</trkpt>
<trkpt lat="35.556821" lon="138.793265">
 <ele>1244.5</ele>
 <time>2020-03-24T15:43:01Z</time>
</trkpt>
<trkpt lat="35.556795" lon="138.793158">
 <ele>1240.4</ele>
 <time>2020-03-24T15:43:02Z</time>
</trkpt>
<trkpt lat="35.556349" lon="138.792128">
 <ele>1232.5</ele>
 <time>2020-03-24T15:43:02Z</time>
</trkpt>
<trkpt lat="35.556288" lon="138.792042">
 <ele>1231.7</ele>
 <time>2020-03-24T15:43:02Z</time>
</trkpt>
<trkpt lat="35.556177" lon="138.792021">
 <ele>1229.3</ele>
 <time>2020-03-24T15:43:02Z</time>
</trkpt>
<trkpt lat="35.556100" lon="138.791946">
 <ele>1229.4</ele>
 <time>2020-03-24T15:43:02Z</time>
</trkpt>
</trkseg>
</trk>
</gpx>

